TimeEST,TemperatureF,Dew PointF,Humidity,Sea Level PressureIn,VisibilityMPH,Wind Direction,Wind SpeedMPH,Gust SpeedMPH,PrecipitationIn,Events,Conditions,WindDirDegrees,DateUTC
12:02 AM,69.8,68.0,94,29.91,3.0,East,5.8,-,N/A,,Scattered Clouds,100,2013-02-25 05:02:00
12:10 AM,69.8,69.8,100,29.91,3.0,East,4.6,-,N/A,,Mostly Cloudy,100,2013-02-25 05:10:00
12:43 AM,69.8,69.8,100,29.89,2.5,SE,4.6,-,N/A,,Overcast,130,2013-02-25 05:43:00
12:53 AM,70.0,69.1,97,29.89,1.2,ESE,4.6,-,N/A,,Overcast,110,2013-02-25 05:53:00
1:01 AM,69.8,69.8,100,29.90,0.5,ESE,5.8,-,N/A,,Mist,120,2013-02-25 06:01:00
1:53 AM,69.1,69.1,100,29.88,0.5,SE,3.5,-,N/A,,Mist,140,2013-02-25 06:53:00
2:53 AM,69.1,69.1,100,29.86,0.2,ESE,4.6,-,N/A,,Mist,110,2013-02-25 07:53:00
3:17 AM,68.0,68.0,100,29.86,2.0,East,3.5,-,N/A,,Mostly Cloudy,80,2013-02-25 08:17:00
3:31 AM,66.2,66.2,100,29.85,3.0,East,4.6,-,N/A,,Scattered Clouds,90,2013-02-25 08:31:00
3:53 AM,66.9,66.0,97,29.85,3.0,ENE,3.5,-,N/A,,Scattered Clouds,70,2013-02-25 08:53:00
4:01 AM,66.2,66.2,100,29.85,4.0,East,3.5,-,0.01,,Mostly Cloudy,80,2013-02-25 09:01:00
4:20 AM,66.2,66.2,100,29.84,1.8,East,5.8,-,0.01,,Overcast,100,2013-02-25 09:20:00
4:38 AM,66.2,66.2,100,29.84,0.8,ESE,6.9,-,0.01,,Mist,110,2013-02-25 09:38:00
4:53 AM,66.9,66.0,97,29.85,0.5,ESE,5.8,-,0.01,,Mist,110,2013-02-25 09:53:00
5:23 AM,66.2,66.2,100,29.84,1.2,ESE,8.1,-,N/A,,Overcast,110,2013-02-25 10:23:00
5:42 AM,66.2,66.2,100,29.85,2.5,ESE,8.1,-,N/A,,Overcast,110,2013-02-25 10:42:00
5:50 AM,66.2,66.2,100,29.84,4.0,ESE,8.1,-,N/A,,Overcast,110,2013-02-25 10:50:00
5:53 AM,66.0,66.0,100,29.84,4.0,ESE,8.1,-,N/A,,Overcast,110,2013-02-25 10:53:00
6:11 AM,66.2,64.4,94,29.84,5.0,ESE,8.1,-,N/A,,Scattered Clouds,110,2013-02-25 11:11:00
6:53 AM,64.9,64.9,100,29.87,5.0,SE,4.6,-,N/A,,Partly Cloudy,130,2013-02-25 11:53:00
7:10 AM,66.2,64.4,94,29.88,4.0,ESE,4.6,-,N/A,,Mostly Cloudy,110,2013-02-25 12:10:00
7:32 AM,66.2,66.2,100,29.88,2.0,ESE,4.6,-,N/A,,Overcast,110,2013-02-25 12:32:00
7:40 AM,66.2,66.2,100,29.87,1.2,ESE,6.9,-,N/A,,Overcast,110,2013-02-25 12:40:00
7:51 AM,66.2,66.2,100,29.87,0.8,ESE,6.9,-,N/A,,Overcast,110,2013-02-25 12:51:00
7:53 AM,66.9,66.0,97,29.87,1.0,ESE,6.9,-,N/A,,Overcast,110,2013-02-25 12:53:00
8:08 AM,68.0,66.2,94,29.88,3.0,ESE,5.8,-,N/A,,Overcast,120,2013-02-25 13:08:00
8:37 AM,69.8,68.0,94,29.88,6.0,ESE,6.9,-,N/A,,Partly Cloudy,110,2013-02-25 13:37:00
8:53 AM,71.1,68.0,90,29.89,9.0,SE,5.8,-,N/A,,Clear,130,2013-02-25 13:53:00
9:53 AM,77.0,66.9,71,29.89,10.0,SSE,10.4,-,N/A,,Scattered Clouds,160,2013-02-25 14:53:00
10:53 AM,79.0,66.9,66,29.86,10.0,South,10.4,-,N/A,,Clear,170,2013-02-25 15:53:00
11:53 AM,80.1,68.0,67,29.85,10.0,South,8.1,-,N/A,,Overcast,180,2013-02-25 16:53:00
1:53 PM,81.0,70.0,69,29.81,10.0,South,18.4,24.2,N/A,,Mostly Cloudy,190,2013-02-25 18:53:00
2:53 PM,82.0,70.0,67,29.79,10.0,South,18.4,25.3,N/A,,Clear,180,2013-02-25 19:53:00
3:53 PM,80.1,71.1,74,29.80,10.0,South,16.1,-,N/A,,Mostly Cloudy,180,2013-02-25 20:53:00
4:53 PM,78.1,71.1,79,29.78,10.0,South,16.1,-,N/A,,Overcast,180,2013-02-25 21:53:00
5:53 PM,77.0,69.1,76,29.78,10.0,South,12.7,-,N/A,,Overcast,180,2013-02-25 22:53:00
6:53 PM,75.9,70.0,82,29.79,10.0,South,15.0,-,N/A,,Clear,180,2013-02-25 23:53:00
7:53 PM,75.0,69.1,82,29.78,10.0,SSE,6.9,-,N/A,,Clear,150,2013-02-26 00:53:00
8:53 PM,71.1,68.0,90,29.81,9.0,SE,4.6,-,N/A,,Clear,130,2013-02-26 01:53:00
9:53 PM,70.0,68.0,93,29.80,7.0,SSE,8.1,-,N/A,,Partly Cloudy,150,2013-02-26 02:53:00
10:53 PM,73.0,69.1,87,29.79,10.0,SSE,12.7,-,N/A,,Clear,160,2013-02-26 03:53:00
11:53 PM,73.0,69.1,87,29.79,9.0,SSE,10.4,-,N/A,,Clear,160,2013-02-26 04:53:00